Location: Guayaquil
(2.1667°S, 79.9000°W)
Time: 09:09:11
(UTC-05:00)

OTV 5 (USA 277) - Visible Passes

Search period start: 16 November 2018 00:00
Search period end: 26 November 2018 00:00
Orbit: 339 x 348 km, 54.5° (Epoch: 14 November)

Date Brightness Start Highest point End Pass type
(mag) Time Alt. Az. Time Alt. Az. Time Alt. Az.
16 Nov ? 19:02:48 10° N 19:05:02 27° NE 19:05:02 27° NE visible
17 Nov ? 19:26:10 10° WNW 19:28:47 32° WSW 19:31:25 10° S visible
19 Nov ? 18:38:23 10° NW 18:41:02 35° WSW 18:43:42 10° SSE visible
21 Nov ? 04:51:32 10° SSE 04:53:19 15° ESE 04:55:06 10° E visible
22 Nov ? 05:13:53 10° SW 05:16:47 74° NW 05:19:38 10° NNE visible
23 Nov ? 04:05:05 14° SE 04:05:31 14° ESE 04:07:08 10° E visible
